Abilene, TX

3:07 PM CST on December 16, 2017 (GMT -0600)
Abilene Regional

Weather History for KABI - October, 2011

Change the Weather History Date:

Tuesday, October 18, 2011

  Actual Average Record
Temperature  
Mean Temperature 59 °F 65 °F  
Max Temperature 67 °F 77 °F 91 °F (1921)
Min Temperature 50 °F 54 °F 32 °F (1948)
Degree Days  
Heating Degree Days 6 3  
Month to date heating degree days 6 36  
Since 1 July heating degree days 6 47  
Cooling Degree Days 0 3  
Month to date cooling degree days 117 86  
Year to date cooling degree days 3459 2357  
Growing Degree Days 8 (Base 50)    
Moisture  
Dew Point 34 °F    
Average Humidity 41    
Maximum Humidity 59    
Minimum Humidity 22    
Precipitation  
Precipitation 0.00 in 0.12 in 1.73 in (1965)
Month to date precipitation 3.81 1.77  
Year to date precipitation 14.44 20.97  
Sea Level Pressure  
Sea Level Pressure 30.10 in    
Wind  
Wind Speed 17 mph (North)    
Max Wind Speed 28 mph    
Max Gust Speed 37 mph    
Visibility 10 miles    
Events      
T = Trace of Precipitation, MM = Missing Value Source: NWS Daily Summary

Daily Weather History Graph

Daily Weather History Graph

Search for Another Location

Airport or City:

Trip Planner

Search our weather history database for the weather conditions in past years. The results will help you decide how hot, cold, wet, or windy it might be!

Date:

Astronomy

Oct. 18, 2011 Rise Set
Actual Time 7:44 AM CDT 7:02 PM CDT
Civil Twilight 7:19 AM CDT 7:27 PM CDT
Nautical Twilight 6:51 AM CDT 7:56 PM CDT
Astronomical Twilight 6:22 AM CDT 8:24 PM CDT
Moon 11:56 PM CDT (10/18) 1:24 PM CDT (10/18)
Length of Visible Light 12h 07m
Length of Day
11h 18m
Waning Gibbous, 64% of the Moon is Illuminated
Oct 18
Waning Gibbous
Oct 19
Last Quarter
Oct 26
New
Nov 2
First Quarter
Nov 10
Full

Hourly Weather History & Observations

Time (CDT) Temp. Dew Point Humidity Pressure Visibility Wind Dir Wind Speed Gust Speed Precip Events Conditions
12:52 AM 63.0 °F 39.0 °F 41% 29.95 in 10.0 mi North 21.9 mph 29.9 mph N/A   Clear
1:52 AM 60.1 °F 37.9 °F 44% 29.97 in 10.0 mi North 9.2 mph - N/A   Clear
2:52 AM 57.0 °F 34.0 °F 42% 29.99 in 10.0 mi North 18.4 mph 28.8 mph N/A   Clear
3:52 AM 55.9 °F 35.1 °F 45% 30.01 in 10.0 mi North 15.0 mph - N/A   Clear
4:52 AM 55.0 °F 34.0 °F 45% 30.03 in 10.0 mi North 16.1 mph 26.5 mph N/A   Clear
5:52 AM 53.1 °F 36.0 °F 52% 30.07 in 10.0 mi North 21.9 mph 26.5 mph N/A   Clear
6:52 AM 52.0 °F 36.0 °F 54% 30.08 in 10.0 mi North 15.0 mph - N/A   Clear
7:52 AM 50.0 °F 36.0 °F 59% 30.11 in 10.0 mi North 15.0 mph - N/A   Clear
8:52 AM 52.0 °F 37.0 °F 57% 30.14 in 10.0 mi NNW 20.7 mph 25.3 mph N/A   Clear
9:52 AM 55.0 °F 37.9 °F 53% 30.17 in 10.0 mi NNW 19.6 mph 25.3 mph N/A   Clear
10:52 AM 55.9 °F 39.0 °F 53% 30.19 in 10.0 mi North 20.7 mph 28.8 mph N/A   Partly Cloudy
11:52 AM 59.0 °F 39.0 °F 48% 30.19 in 10.0 mi North 20.7 mph 29.9 mph N/A   Scattered Clouds
12:52 PM 62.1 °F 37.0 °F 39% 30.16 in 10.0 mi NNW 23.0 mph 31.1 mph N/A   Partly Cloudy
1:52 PM 63.0 °F 35.1 °F 35% 30.13 in 10.0 mi NNW 21.9 mph 31.1 mph N/A   Clear
2:52 PM 64.9 °F 33.1 °F 31% 30.11 in 10.0 mi NNW 24.2 mph 32.2 mph N/A   Clear
3:52 PM 66.0 °F 28.0 °F 24% 30.10 in 10.0 mi NNW 23.0 mph 33.4 mph N/A   Clear
4:52 PM 66.0 °F 27.0 °F 23% 30.09 in 10.0 mi NNW 20.7 mph 33.4 mph N/A   Clear
5:52 PM 66.0 °F 28.0 °F 24% 30.09 in 10.0 mi North 20.7 mph 29.9 mph N/A   Clear
6:52 PM 64.0 °F 28.9 °F 27% 30.10 in 10.0 mi NNW 15.0 mph - N/A   Clear
7:52 PM 60.1 °F 30.9 °F 33% 30.12 in 10.0 mi NNW 12.7 mph - N/A   Clear
8:52 PM 59.0 °F 30.0 °F 33% 30.14 in 10.0 mi North 12.7 mph - N/A   Clear
9:52 PM 55.9 °F 30.9 °F 39% 30.16 in 10.0 mi North 10.4 mph - N/A   Clear
10:52 PM 54.0 °F 30.9 °F 41% 30.18 in 10.0 mi North 10.4 mph - N/A   Clear
11:52 PM 53.1 °F 30.0 °F 41% 30.17 in 10.0 mi North 10.4 mph - N/A   Clear